Location: Rounton
(54.4000°N, 1.3500°W)
Time: 15:02:44
(UTC+00:00)

Altair - Pass Details

Date: 09 December 2021
Orbit: 1501 x 1683 km, 47.2° (Epoch: 22 January)

Event Time Altitude Azimuth Distance (km) Brightness Sun altitude
Rises 19:23:28 0° 279° (W) 4,716 11.2 -30.8°
Reaches altitude 10° 19:26:47 10° 272° (W) 3,710 10.4 -31.3°
Maximum altitude 19:35:08 39° 208° (SSW) 2,123 8.3 -32.5°
Enters shadow 19:38:21 30° 170° (S) 2,418 8.3 -32.9°
Drops below altitude 10° 19:43:20 10° 144° (SE) 3,646 - -33.7°
Sets 19:46:35 0° 137° (SE) 4,628 - -34.1°
